Flag for U.S.A. Weather past 2 weeks in Pontiac, Michigan, U.S.A.

Now
32 °F

Overcast.


Feels Like: 19 °F
Forecast: 13 / 31 °F
Wind: 22 mph from West

Location: Oakland County International Airport

Current Time: Mar 3, 2015 at 10:58:22 PM

Latest Report: Mar 3, 2015 at 9:53 PM


Visibility: 10 mi

Pressure: 29.70 "Hg

Humidity: 82%

Dew point: 27 °F

Location of PontiacLocation

Historic Weather in Pontiac — Graph

°F

Pontiac temperature yesterday

Maximum temperature yesterday: 29 °F (at 4:53 PM)
Minimum temperature yesterday: 17 °F (at 7:53 AM)
Average temperature yesterday: 23 °F

Past Weeks' High & Low Weather Summary

 TemperatureHumidityPressure
High34 °F (Mar 3, 6:53 PM)100% (Feb 27, 9:53 AM)30.78 "Hg (Feb 27, 9:53 AM)
Low-19 °F (Feb 20, 5:53 AM)36% (Feb 28, 4:53 PM)29.58 "Hg (Mar 3, 5:53 PM)
Average11 °F68%30.19 "Hg
* Reported Feb 16 8:53 PM — Mar 3 8:53 PM, Pontiac, Weather by CustomWeather, © 2015

Note: Actual official high and low records may vary slightly from our data, if they occured in-between our weather recording intervals... More about our weather records

Advertising

Pontiac weather history for previous 24 hours

 ConditionsComfort  
Time TempWeatherWind HumidityBarometerVisibility
8:53 PM
Tue, Mar 3
33 °FOvercast.24 mph82%29.67 "Hg10 mi
7:53 PM34 °FOvercast.26 mph85%29.64 "Hg10 mi
6:53 PM34 °FOvercast.22 mph88%29.60 "Hg10 mi
5:53 PM33 °FFog.14 mph92%29.58 "Hg5 mi
4:53 PM30 °FLight freezing rain. Ice fog.9 mph96%29.58 "Hg1 mi
3:53 PM29 °FLight freezing rain. Ice fog.8 mph93%29.59 "Hg2 mi
3:04 PM27 °FLight freezing rain. Ice fog.10 mph92%29.59 "Hg2 mi
2:53 PM27 °FIce fog.12 mph92%29.64 "Hg3 mi
1:53 PM27 °FIce fog.15 mph89%29.69 "Hg4 mi
12:58 PM26 °FSleet. Ice fog.14 mph88%29.71 "Hg3 mi
12:03 PM23 °FSleet. Ice fog.14 mph88%29.82 "Hg1 mi
11:53 AM23 °FSleet. Ice fog.13 mph88%29.88 "Hg1 mi
10:58 AM22 °FLight freezing rain. Ice fog.10 mph89%29.91 "Hg2 mi
9:53 AM21 °FSnow. Ice fog.12 mph88%30.03 "Hg1 mi
9:01 AM20 °FHeavy snow. Ice fog.12 mph92%30.06 "Hg0 mi
7:53 AM21 °FLight snow. Overcast.13 mph81%30.16 "Hg1 mi
6:53 AM22 °FOvercast.6 mph72%30.15 "Hg8 mi
5:53 AM22 °FOvercast.6 mph72%30.19 "Hg9 mi
4:53 AM22 °FMostly cloudy.6 mph72%30.23 "Hg8 mi
3:53 AM23 °FMostly cloudy.5 mph68%30.28 "Hg9 mi
2:53 AM23 °FMostly cloudy.5 mph68%30.29 "Hg10 mi
1:53 AM23 °FOvercast.5 mph65%30.32 "Hg10 mi
12:53 AM22 °FClear.3 mph68%30.33 "Hg10 mi
11:53 PM
Mon, Mar 2
21 °FPassing clouds.5 mph71%30.34 "Hg10 mi
10:53 PM18 °FPassing clouds.No wind74%30.37 "Hg9 mi
Weather by CustomWeather, © 2015

See weather overviewHow to use our weather pages